Wind_Speed
33 34 35 36 37 37 37 35 32 31 30 29 28 27 25 24 23 21 19 18 17 17 17 16 16 16 16 16 15 15 15 15 15 15 15 15 15 15 14 14 14 14 14 14 14 14 13 13 13
33 33 35 36 37 37 35 34 33 32 31 30 30 29 27 26 25 23 21 19 19 19 19 18 18 18 18 18 17 17 17 17 17 17 17 17 17 16 16 15 15 15 15 16 16 16 15 15 14
32 33 34 35 36 35 34 34 34 32 32 32 31 30 29 28 26 24 22 21 20 20 20 20 19 19 19 19 19 19 19 19 19 19 18 18 18 18 17 17 17 16 16 16 17 17 17 17 16
31 31 34 35 34 33 33 33 34 33 33 33 32 31 30 29 28 26 24 23 22 22 21 21 21 20 20 20 21 21 21 20 20 20 19 19 19 20 20 20 19 19 18 18 18 18 19 18 18
30 31 32 33 33 32 33 34 33 33 33 32 32 32 31 30 29 27 26 25 24 24 23 23 23 22 22 22 22 22 22 22 22 22 22 21 21 22 22 22 22 21 21 20 21 21 21 21 20
29 30 31 32 32 32 32 33 33 33 33 32 31 32 31 31 30 29 27 26 25 25 24 24 23 23 23 23 24 23 23 23 23 23 23 23 23 23 23 23 24 23 23 23 23 23 22 22 22
27 29 30 31 31 31 32 32 32 32 33 32 31 31 31 31 31 30 28 27 26 26 25 24 24 24 24 24 24 23 23 24 24 25 25 24 25 25 25 25 25 25 25 25 25 25 24 24 24
25 27 28 29 30 30 31 32 31 31 32 33 32 32 31 31 31 30 29 28 27 26 25 25 24 24 24 24 24 24 24 24 25 26 26 26 26 26 26 26 26 26 26 26 26 27 26 26 26
24 26 27 28 29 29 30 30 31 31 32 32 32 31 31 31 31 30 29 28 28 27 26 25 25 25 24 25 25 25 25 25 26 26 26 27 27 27 27 27 27 27 28 28 28 29 29 28 28
23 25 25 28 28 28 29 30 30 31 31 32 32 31 31 30 30 31 30 29 28 28 27 26 26 25 25 25 26 26 26 26 27 27 27 27 27 28 28 28 29 28 29 29 30 30 31 30 30
21 23 24 26 27 27 29 30 31 31 31 32 32 31 31 31 30 29 29 29 29 28 28 27 26 27 27 27 27 27 27 28 28 28 29 29 29 29 29 30 30 30 31 31 31 32 32 32 31
20 21 23 25 26 26 27 29 31 31 31 31 32 32 31 31 30 29 29 29 29 29 28 28 28 28 28 28 28 28 28 28 28 29 29 30 30 30 31 31 31 31 32 33 33 33 33 33 32
18 19 21 23 25 26 26 27 29 30 30 30 30 30 28 29 29 29 29 29 29 29 28 28 28 29 29 29 29 29 29 29 29 29 30 30 31 31 31 32 32 32 33 33 33 33 34 34 34
16 18 19 21 22 24 25 26 27 28 30 29 28 28 27 27 28 28 28 28 28 29 28 28 29 29 29 29 30 30 30 30 30 30 31 31 32 33 32 32 33 33 34 33 33 34 34 35 35
15 17 18 20 21 22 24 25 26 27 28 29 28 27 26 26 27 28 28 28 28 28 29 29 29 29 29 30 30 30 30 31 31 32 33 33 34 34 33 33 33 34 35 35 35 35 35 36 37
15 16 17 19 21 21 23 24 25 26 26 26 26 26 25 25 26 27 28 27 28 28 28 29 29 29 29 30 30 30 31 32 32 33 33 34 34 34 34 34 34 34 35 35 36 36 37 37 38
14 15 17 18 20 21 22 23 24 25 25 25 26 26 25 24 25 26 27 27 28 28 28 29 29 29 30 30 30 30 30 32 33 33 33 33 34 34 34 35 35 36 36 36 37 38 38 38 38
12 14 15 17 18 20 21 22 24 24 24 24 25 26 25 25 25 26 26 26 27 28 27 28 28 28 29 29 30 31 31 32 32 32 34 34 35 36 36 36 36 36 37 37 38 38 39 39 40
11 12 13 15 16 18 20 21 23 23 22 23 24 25 25 25 26 26 26 26 26 27 28 27 28 29 29 30 30 32 33 33 34 34 35 36 36 36 37 37 37 37 38 38 39 40 40 41 41
9 10 12 13 15 17 18 20 21 22 23 23 24 25 25 25 25 26 26 26 26 27 27 28 29 29 30 31 33 33 34 34 36 36 37 37 37 37 37 37 38 39 39 40 40 41 41 41 42
8 9 11 13 15 17 18 18 21 21 21 23 23 24 25 25 25 25 26 26 27 28 29 29 29 30 31 33 34 35 35 36 36 37 37 37 38 39 39 39 39 40 40 41 41 42 42 42 42
7 8 10 11 13 15 17 18 19 20 21 22 23 24 25 25 26 26 26 27 28 29 29 30 30 31 32 33 34 35 35 36 37 38 38 38 39 40 41 41 41 42 42 42 42 42 43 43 43
8 9 10 11 13 14 16 18 18 20 20 21 22 23 25 26 27 27 27 27 28 28 29 30 31 32 32 33 34 35 36 36 37 38 39 40 40 41 41 42 42 43 43 43 43 43 43 43 42
10 10 11 12 13 15 16 18 18 20 20 21 22 23 24 25 26 27 27 27 27 28 29 30 31 33 33 34 35 36 36 37 38 39 40 40 41 41 42 42 42 43 43 43 42 43 44 44 43
12 12 13 14 15 15 16 18 18 20 21 22 23 24 25 26 27 27 27 27 28 29 30 31 32 33 34 35 36 37 37 38 38 39 40 40 41 42 42 42 42 42 42 42 42 42 43 43 44
13 14 15 16 16 16 17 19 19 20 21 22 23 24 25 26 27 27 28 29 30 31 32 33 33 34 35 36 36 37 38 38 39 40 40 40 41 42 42 42 43 43 42 42 42 42 43 43 44
15 15 17 18 18 18 18 18 19 20 22 23 24 24 25 26 27 29 30 31 31 32 33 34 35 35 36 37 37 38 39 40 40 40 41 41 41 42 42 42 42 41 41 41 42 42 43 43 43
17 17 18 19 20 20 19 19 19 20 21 22 23 25 26 27 28 29 31 32 33 34 35 35 36 37 37 37 38 39 39 40 40 41 41 41 41 42 42 41 41 41 41 41 41 42 43 43 43
19 19 19 20 21 22 22 20 19 21 21 23 24 25 26 28 29 30 31 32 33 34 35 36 37 38 38 39 39 40 41 41 41 42 42 42 42 41 40 40 40 40 41 42 42 42 42 43 43
20 19 20 21 22 23 23 21 21 22 23 24 24 25 26 28 29 30 32 33 35 36 37 38 39 39 40 40 40 41 41 41 42 42 42 42 42 41 40 40 40 40 41 42 42 42 42 43 43
Wind_Direction
250 246 242 240 241 241 241 239 238 236 235 234 234 235 236 238 240 240 238 239 239 240 240 241 242 243 243 244 245 247 250 254 255 257 258 258 259 259 259 258 258 259 259 258 257 256 256 257 259
249 244 241 240 240 240 239 237 236 235 234 234 235 236 236 238 239 241 239 240 241 242 242 242 243 245 246 247 247 249 251 254 256 257 258 260 259 260 260 260 259 259 260 259 259 258 258 258 258
246 243 241 240 239 239 238 237 236 235 233 233 234 236 237 238 240 241 240 241 243 243 243 244 245 246 247 249 250 251 252 254 256 257 258 259 259 259 260 260 260 260 260 260 260 260 260 260 260
243 242 241 241 240 238 238 238 237 234 233 233 233 235 237 239 240 241 241 242 242 244 243 244 246 248 249 251 252 252 253 254 255 256 257 259 260 260 260 260 260 260 260 259 260 261 261 261 261
243 241 241 241 239 237 237 236 234 233 233 234 234 235 237 238 240 241 241 242 242 244 246 247 248 250 252 253 255 255 254 254 255 256 258 260 261 261 261 261 260 260 260 260 260 261 262 262 262
243 241 241 240 237 234 234 234 232 231 232 234 235 236 237 238 239 240 241 242 243 244 246 248 250 252 253 254 255 256 255 255 256 257 259 260 261 261 261 261 260 260 261 261 261 261 261 262 262
244 242 242 238 235 232 233 233 233 231 231 233 235 235 236 237 238 240 241 241 241 243 245 248 251 252 253 254 255 255 256 256 256 257 258 259 260 261 261 261 261 261 261 261 261 261 261 261 261
245 244 240 236 234 231 232 233 234 232 232 232 235 235 236 237 239 240 241 242 242 244 246 248 250 252 253 254 255 256 257 257 257 257 258 259 260 260 262 262 261 261 261 261 261 261 262 263 263
245 242 238 234 232 230 231 233 234 234 234 233 235 235 235 237 238 240 241 242 243 244 246 248 249 251 253 254 255 256 257 258 258 258 258 259 259 260 262 263 262 262 262 262 262 262 263 263 263
242 240 238 234 232 230 231 232 233 233 233 234 235 235 236 238 239 239 241 242 243 244 247 248 249 250 251 253 255 257 258 259 260 259 259 260 261 261 262 264 263 262 263 263 263 263 263 263 263
241 240 239 234 232 232 233 233 233 233 232 234 235 237 239 240 240 241 240 242 243 245 247 247 248 250 251 253 255 257 259 260 261 261 260 260 261 263 264 265 266 265 264 263 264 264 263 262 262
241 240 240 236 233 234 236 233 232 233 231 233 235 237 240 241 240 241 242 242 243 245 247 248 248 250 252 253 254 257 259 260 261 262 261 261 262 264 265 266 267 267 266 264 264 263 262 262 261
241 241 241 237 235 235 235 234 232 233 232 232 233 236 239 240 239 239 241 243 243 245 247 248 249 251 252 254 254 256 258 259 261 262 262 263 263 264 266 267 267 268 266 264 263 263 262 261 261
242 242 241 238 236 235 234 233 232 232 232 232 231 234 237 237 238 237 239 242 244 246 248 249 250 252 253 254 255 256 258 259 260 262 264 265 265 266 266 268 268 267 265 265 263 262 262 261 260
243 244 241 237 236 235 233 232 231 230 231 233 232 233 235 236 237 237 239 241 244 246 249 251 252 253 254 255 256 256 258 259 260 262 264 266 266 267 267 268 268 266 266 265 264 263 263 262 261
244 245 240 237 236 233 232 231 229 229 231 232 232 233 236 236 237 238 240 243 245 247 249 252 254 254 254 255 257 257 258 260 261 263 265 266 266 267 268 267 267 267 266 265 264 263 264 264 262
248 247 242 237 236 234 232 229 228 228 230 232 233 235 237 237 238 239 241 245 246 249 250 252 254 254 255 257 258 260 261 261 262 263 265 266 267 268 269 269 268 268 267 266 265 265 264 265 265
255 252 244 238 236 234 232 228 229 231 232 233 234 235 238 238 240 241 243 245 248 251 252 253 254 255 256 257 260 262 263 263 265 266 267 268 269 270 270 270 269 269 268 267 266 266 266 266 266
268 261 250 242 239 233 230 229 230 231 232 234 234 235 237 239 241 243 243 245 249 252 254 255 256 256 256 258 261 263 265 266 267 269 269 270 270 270 270 269 270 270 270 268 267 267 267 266 266
272 264 252 245 240 235 231 229 229 231 233 234 235 236 237 240 243 245 245 247 250 253 255 256 257 256 259 261 263 265 267 267 269 270 272 271 271 271 270 270 271 272 272 270 268 267 267 267 267
278 269 256 245 243 241 237 232 233 235 236 235 236 238 239 241 244 246 247 250 252 255 256 257 258 260 262 263 265 267 268 270 270 270 271 271 271 271 272 272 272 273 273 272 269 266 267 266 266
279 275 263 252 249 244 242 237 235 238 239 238 239 241 242 243 246 249 251 253 254 256 257 258 260 263 264 266 268 269 270 270 270 270 271 271 272 273 273 274 275 276 275 273 271 269 268 267 266
283 277 271 265 260 253 248 247 241 243 244 244 244 245 246 247 249 252 254 254 255 256 258 260 262 264 265 267 268 270 271 272 271 272 272 272 273 274 274 274 275 276 276 274 272 270 269 268 267
284 276 275 272 267 260 255 255 250 250 253 252 251 251 252 252 252 254 255 256 256 258 260 262 265 267 268 270 271 272 273 274 274 274 274 274 274 275 275 275 275 276 276 274 272 270 268 267 267
280 276 277 274 270 266 261 259 257 256 256 257 257 255 254 253 253 255 255 257 259 261 263 265 267 268 270 272 273 274 275 276 276 276 276 277 277 277 276 276 276 276 276 275 273 270 269 267 267
282 280 279 278 276 272 269 264 261 261 260 259 258 257 256 255 255 256 257 259 261 262 264 266 268 270 272 273 274 275 276 276 277 277 278 278 278 279 279 278 276 276 275 274 273 271 269 268 267
286 282 281 279 279 277 274 271 266 264 263 261 259 258 259 258 258 259 260 261 263 264 266 268 270 271 272 274 275 276 276 277 277 278 279 280 280 279 280 279 278 276 274 273 272 271 269 268 268
287 284 282 282 282 280 278 277 275 270 267 266 264 262 261 260 261 261 262 264 265 267 269 270 271 272 273 274 276 277 277 278 278 278 279 280 281 281 281 280 278 277 275 274 273 272 270 269 268
287 281 279 279 279 279 280 281 279 276 274 273 270 269 267 264 264 264 266 266 267 268 269 271 272 274 275 276 276 277 278 279 279 279 279 279 281 282 281 279 278 277 276 275 274 273 271 269 269
285 281 279 279 279 279 280 282 280 277 275 274 274 273 271 271 269 269 269 269 269 270 271 272 273 275 276 276 277 278 278 278 278 278 279 280 280 280 280 279 279 277 276 276 275 274 272 269 268
Height
5805 5807 5810 5812 5815 5817 5820 5824 5829 5833 5836 5838 5840 5842 5845 5847 5850 5855 5855 5855 5857 5858 5859 5860 5861 5862 5863 5864 5865 5866 5867 5868 5869 5869 5870 5871 5871 5871 5872 5872 5873 5873 5873 5874 5874 5874 5874 5875 5875
5797 5799 5802 5804 5806 5809 5814 5818 5822 5827 5830 5832 5835 5837 5840 5842 5845 5848 5850 5852 5853 5854 5856 5857 5858 5859 5860 5861 5862 5863 5864 5865 5866 5867 5867 5868 5868 5869 5869 5870 5870 5871 5871 5871 5872 5872 5872 5872 5873
5789 5791 5794 5796 5799 5804 5809 5812 5817 5821 5823 5826 5829 5832 5835 5838 5841 5843 5846 5848 5849 5850 5852 5853 5855 5856 5857 5858 5859 5860 5861 5862 5862 5863 5864 5865 5865 5866 5866 5867 5867 5868 5868 5868 5869 5869 5869 5870 5870
5781 5784 5786 5789 5793 5799 5803 5806 5810 5814 5817 5820 5823 5827 5830 5833 5836 5839 5841 5843 5845 5846 5848 5849 5851 5852 5853 5854 5855 5856 5857 5858 5859 5860 5860 5861 5862 5862 5863 5864 5864 5865 5865 5865 5866 5866 5866 5867 5867
5774 5776 5779 5782 5788 5792 5796 5799 5803 5807 5810 5814 5818 5821 5824 5828 5831 5834 5836 5838 5840 5842 5843 5845 5847 5848 5849 5850 5851 5852 5853 5854 5855 5856 5856 5857 5858 5858 5859 5860 5860 5861 5861 5862 5862 5862 5863 5863 5864
5767 5769 5773 5776 5781 5785 5789 5792 5796 5800 5804 5808 5812 5816 5819 5822 5825 5828 5831 5833 5835 5837 5839 5840 5842 5843 5844 5845 5846 5847 5849 5849 5850 5851 5852 5853 5853 5854 5855 5855 5856 5857 5857 5858 5858 5858 5859 5859 5859
5762 5764 5766 5771 5775 5779 5783 5786 5790 5794 5798 5802 5806 5810 5813 5816 5820 5822 5825 5827 5830 5832 5834 5835 5837 5838 5839 5841 5842 5843 5844 5845 5846 5846 5847 5848 5848 5849 5849 5850 5851 5852 5852 5853 5853 5854 5854 5855 5855
5756 5759 5761 5765 5769 5774 5777 5781 5784 5788 5792 5797 5800 5804 5808 5811 5814 5817 5819 5822 5824 5826 5828 5830 5832 5833 5834 5835 5836 5838 5839 5839 5840 5841 5842 5843 5843 5844 5844 5845 5845 5846 5847 5848 5848 5849 5849 5850 5850
5750 5754 5756 5760 5764 5768 5772 5776 5779 5783 5787 5791 5794 5799 5802 5805 5808 5811 5814 5816 5819 5821 5823 5825 5826 5828 5829 5830 5831 5832 5833 5834 5835 5835 5836 5837 5838 5838 5839 5839 5840 5840 5841 5842 5843 5843 5844 5845 5845
5746 5749 5752 5756 5759 5763 5766 5770 5773 5777 5781 5785 5789 5792 5796 5799 5802 5805 5808 5810 5813 5815 5817 5819 5821 5823 5824 5825 5826 5827 5828 5828 5829 5830 5831 5831 5832 5833 5833 5834 5834 5835 5835 5836 5837 5837 5838 5839 5839
5742 5745 5748 5751 5754 5758 5760 5764 5768 5772 5776 5780 5784 5787 5790 5793 5796 5799 5802 5804 5807 5809 5811 5813 5815 5817 5818 5819 5820 5821 5822 5823 5823 5824 5825 5825 5826 5826 5827 5827 5828 5828 5829 5830 5830 5831 5831 5832 5833
5739 5741 5744 5747 5750 5753 5755 5759 5763 5766 5771 5774 5778 5781 5784 5786 5790 5793 5796 5798 5801 5803 5805 5807 5809 5811 5812 5813 5814 5815 5816 5816 5817 5818 5818 5819 5820 5820 5821 5821 5821 5822 5822 5823 5824 5824 5825 5825 5826
5736 5738 5740 5743 5746 5748 5751 5754 5758 5761 5765 5768 5771 5775 5778 5781 5784 5787 5790 5792 5795 5797 5799 5801 5803 5804 5806 5807 5808 5809 5809 5810 5810 5811 5811 5812 5813 5813 5814 5814 5814 5815 5815 5815 5816 5817 5817 5818 5819
5733 5734 5737 5739 5741 5744 5747 5750 5753 5757 5759 5763 5766 5770 5772 5775 5778 5781 5784 5786 5789 5791 5793 5795 5796 5798 5799 5800 5801 5802 5803 5803 5804 5804 5804 5805 5806 5806 5807 5807 5807 5807 5807 5808 5809 5809 5810 5811 5812
5730 5732 5733 5735 5737 5740 5743 5746 5749 5752 5754 5758 5762 5765 5768 5770 5773 5776 5778 5780 5783 5785 5787 5788 5790 5791 5792 5793 5794 5795 5796 5796 5797 5797 5797 5798 5798 5799 5799 5800 5800 5800 5800 5800 5801 5801 5802 5803 5803
5727 5729 5730 5732 5734 5736 5741 5743 5745 5747 5751 5754 5757 5760 5763 5765 5768 5770 5772 5775 5777 5778 5780 5782 5783 5784 5785 5786 5787 5788 5788 5789 5789 5790 5790 5790 5791 5791 5791 5792 5792 5792 5792 5792 5792 5793 5794 5794 5795
5724 5726 5727 5729 5730 5733 5736 5739 5741 5743 5747 5750 5753 5755 5758 5760 5762 5765 5767 5769 5770 5772 5774 5775 5776 5777 5778 5779 5780 5780 5781 5781 5782 5782 5782 5783 5783 5783 5784 5784 5783 5783 5783 5784 5784 5784 5785 5785 5786
5723 5724 5725 5726 5727 5730 5732 5735 5737 5739 5743 5746 5748 5751 5753 5755 5757 5759 5761 5763 5764 5766 5767 5768 5769 5770 5771 5772 5773 5773 5773 5774 5774 5775 5775 5775 5775 5775 5775 5775 5775 5775 5775 5775 5775 5775 5776 5776 5776
5721 5722 5723 5724 5725 5727 5729 5732 5734 5735 5738 5741 5744 5746 5748 5750 5752 5753 5755 5756 5758 5760 5761 5762 5763 5764 5765 5766 5766 5766 5766 5766 5767 5767 5766 5767 5767 5766 5766 5766 5766 5766 5766 5766 5766 5766 5766 5767 5767
5719 5719 5720 5722 5722 5724 5726 5728 5730 5732 5734 5737 5739 5741 5743 5745 5747 5748 5749 5751 5752 5753 5754 5755 5756 5757 5758 5759 5759 5759 5759 5759 5759 5759 5758 5758 5758 5758 5758 5757 5757 5757 5756 5756 5756 5756 5756 5756 5756
5717 5718 5719 5719 5720 5721 5723 5726 5727 5729 5730 5732 5734 5736 5738 5740 5741 5743 5744 5745 5746 5747 5748 5749 5750 5750 5751 5751 5751 5751 5751 5751 5750 5750 5750 5749 5749 5749 5749 5748 5748 5747 5747 5746 5746 5745 5745 5745 5745
5716 5716 5717 5717 5718 5719 5721 5722 5724 5725 5727 5728 5730 5731 5733 5734 5736 5737 5738 5739 5740 5741 5742 5743 5743 5743 5743 5743 5743 5743 5743 5742 5742 5741 5741 5740 5740 5739 5739 5738 5738 5737 5736 5735 5735 5735 5734 5734 5734
5715 5714 5715 5715 5716 5717 5718 5719 5721 5721 5723 5724 5725 5726 5728 5729 5730 5731 5732 5733 5734 5734 5735 5735 5736 5736 5736 5736 5735 5735 5734 5734 5733 5732 5732 5731 5730 5729 5728 5728 5727 5726 5725 5724 5724 5723 5723 5723 5723
5713 5713 5713 5713 5713 5714 5715 5715 5717 5718 5719 5719 5720 5721 5722 5723 5724 5725 5725 5726 5727 5727 5728 5728 5728 5728 5727 5727 5727 5726 5725 5725 5724 5723 5722 5721 5720 5719 5718 5717 5716 5715 5714 5713 5712 5712 5712 5712 5712
5710 5711 5710 5709 5710 5711 5711 5711 5713 5713 5714 5714 5715 5715 5716 5716 5717 5718 5719 5720 5720 5720 5720 5720 5720 5720 5719 5718 5718 5717 5716 5715 5714 5713 5712 5711 5710 5708 5707 5706 5705 5704 5703 5702 5701 5700 5700 5700 5700
5707 5707 5707 5706 5706 5706 5706 5706 5709 5708 5708 5708 5708 5709 5709 5710 5710 5711 5712 5712 5712 5712 5712 5712 5712 5711 5710 5709 5708 5707 5706 5705 5704 5703 5702 5700 5699 5698 5696 5695 5694 5692 5691 5690 5689 5689 5688 5688 5688
5704 5703 5703 5702 5701 5701 5702 5702 5703 5702 5702 5702 5702 5703 5703 5703 5703 5703 5704 5704 5704 5704 5703 5703 5703 5702 5701 5700 5698 5697 5696 5695 5693 5692 5691 5690 5688 5687 5685 5683 5682 5680 5679 5678 5678 5677 5677 5677 5676
5700 5699 5699 5697 5696 5695 5696 5697 5697 5696 5696 5696 5696 5695 5695 5695 5695 5695 5695 5695 5695 5695 5694 5694 5693 5692 5691 5689 5688 5687 5686 5684 5683 5681 5680 5678 5677 5675 5673 5671 5670 5669 5667 5667 5666 5666 5665 5665 5665
5696 5695 5693 5692 5692 5691 5690 5694 5692 5690 5689 5689 5688 5688 5687 5687 5687 5687 5687 5686 5686 5685 5685 5684 5683 5682 5680 5679 5678 5677 5675 5674 5672 5670 5669 5667 5666 5664 5662 5660 5658 5657 5656 5655 5654 5654 5653 5653 5652
5690 5689 5688 5688 5687 5685 5684 5689 5685 5684 5682 5681 5681 5680 5679 5679 5678 5678 5678 5677 5676 5675 5674 5673 5672 5671 5670 5668 5667 5666 5664 5662 5661 5659 5657 5656 5654 5652 5650 5649 5647 5646 5644 5643 5642 5642 5641 5640 5640